Location: Newark
(33.2833°N, 8.3333°W)
Time: 15:49:12
(UTC+00:00)

N. Korean satellite - Visible Passes

Search period start: 23 October 2019 00:00
Search period end: 02 November 2019 00:00
Orbit: 455 x 508 km, 97.2° (Epoch: 22 October)

Date Brightness Start Highest point End Pass type
(mag) Time Alt. Az. Time Alt. Az. Time Alt. Az.
23 Oct 10.4 18:50:42 10° WSW 18:51:37 11° W 18:52:34 10° WNW visible
24 Oct 9.3 18:23:20 10° SSW 18:26:11 24° W 18:29:03 10° NW visible
25 Oct 8.9 05:53:08 10° NE 05:56:25 30° E 05:59:42 10° SSE visible
26 Oct 10.2 05:28:58 10° ENE 05:31:00 14° E 05:33:03 10° SE visible
27 Oct 10.0 18:41:47 10° SW 18:43:41 14° W 18:45:35 10° WNW visible
28 Oct 7.5 06:10:15 10° NNE 06:13:53 55° E 06:17:31 10° S visible
28 Oct 8.7 18:15:09 10° SSW 18:18:14 31° W 18:21:23 10° NNW visible
29 Oct 9.3 05:45:27 10° NE 05:48:31 24° E 05:51:35 10° SSE visible
30 Oct 10.4 05:21:52 10° ENE 05:23:04 11° E 05:24:17 10° ESE visible
31 Oct 9.8 18:33:15 10° SW 18:35:42 18° W 18:38:10 10° NW visible
01 Nov 8.1 06:02:25 10° NNE 06:05:59 42° E 06:09:31 10° S visible
01 Nov 8.1 18:06:59 10° S 18:10:16 41° W 18:13:37 10° NNW visible
